Weather History for KYKM - May, 2013

Change the Weather History Date:

Sunday, May 19, 2013

  Actual Average Record
Temperature  
Mean Temperature 58 °F 58 °F  
Max Temperature 77 °F 74 °F 88 °F (2008)
Min Temperature 39 °F 43 °F 29 °F (1987)
Degree Days  
Heating Degree Days 7 7  
Month to date heating degree days 78 187  
Since 1 July heating degree days 5034 5869  
Cooling Degree Days 0 1  
Month to date cooling degree days 51 8  
Year to date cooling degree days 52 9  
Growing Degree Days 9 (Base 50)    
Moisture  
Dew Point 37 °F    
Average Humidity 54    
Maximum Humidity 85    
Minimum Humidity 23    
Precipitation  
Precipitation 0.00 in 0.01 in 0.75 in (1948)
Month to date precipitation T 0.33  
Year to date precipitation 1.30 3.42  
Snow  
Snow 0.00 in 0.00 in 0.00 in (2002)
Month to date snowfall 0.0 0.0  
Year to date snowfall 1.1 8.6  
Since 1 July snowfall 15.3 21.6  
Snow Depth 0.00 in    
Sea Level Pressure  
Sea Level Pressure 30.24 in    
Wind  
Wind Speed 9 mph (WNW)    
Max Wind Speed 25 mph    
Max Gust Speed 32 mph    
Visibility 10 miles    
Events      
T = Trace of Precipitation, MM = Missing Value Source: NWS Daily Summary

Daily Weather History Graph

Daily Weather History Graph

Search for Another Location

Airport or City:

Trip Planner

Search our weather history database for the weather conditions in past years. The results will help you decide how hot, cold, wet, or windy it might be!

Date:

Astronomy

May. 19, 2013 Rise Set
Actual Time 5:23 AM PDT 8:34 PM PDT
Civil Twilight 4:47 AM PDT 9:11 PM PDT
Nautical Twilight 4:00 AM PDT 9:58 PM PDT
Astronomical Twilight 3:01 AM PDT 10:57 PM PDT
Moon 2:24 PM PDT (5/19) 2:11 AM PDT (5/19)
Length of Visible Light 16h 24m
Length of Day
15h 11m
Waxing Gibbous, 66% of the Moon is Illuminated
May 19
Waxing Gibbous
May 24
Full
May 31
Last Quarter
Jun 8
New
Jun 16
First Quarter

Hourly Weather History & Observations

Time (PDT) Temp. Windchill Dew Point Humidity Pressure Visibility Wind Dir Wind Speed Gust Speed Precip Events Conditions
12:53 AM 48.9 °F - 37.0 °F 64% 30.18 in 10.0 mi WNW 6.9 mph - N/A   Clear
1:53 AM 42.1 °F 40.2 °F 35.1 °F 76% 30.20 in 10.0 mi SW 3.5 mph - N/A   Clear
2:53 AM 42.1 °F - 35.1 °F 76% 30.22 in 10.0 mi North - - N/A   Clear
3:53 AM 39.9 °F 36.7 °F 35.1 °F 83% 30.23 in 10.0 mi WSW 4.6 mph - N/A   Clear
4:53 AM 46.4 °F 42.9 °F 37.4 °F 71% 30.23 in 10.0 mi West 6.9 mph - N/A   Clear
5:53 AM 42.1 °F 37.7 °F 35.1 °F 76% 30.25 in 10.0 mi West 6.9 mph - N/A   Clear
6:53 AM 50.0 °F - 39.0 °F 66% 30.25 in 10.0 mi West 3.5 mph - N/A   Clear
7:53 AM 60.1 °F - 39.0 °F 46% 30.26 in 10.0 mi WNW 6.9 mph - N/A   Clear
8:53 AM 64.9 °F - 37.0 °F 36% 30.26 in 10.0 mi WNW 11.5 mph - N/A   Clear
9:53 AM 66.9 °F - 37.0 °F 33% 30.26 in 10.0 mi NW 11.5 mph 17.3 mph N/A   Scattered Clouds
10:53 AM 69.1 °F - 37.0 °F 31% 30.25 in 10.0 mi West 6.9 mph - N/A   Scattered Clouds
11:53 AM 69.8 °F - 35.6 °F 28% 30.25 in 10.0 mi Variable 5.8 mph - N/A   Scattered Clouds
12:53 PM 73.4 °F - 37.4 °F 27% 30.24 in 10.0 mi NNW 9.2 mph - N/A   Scattered Clouds
1:53 PM 73.0 °F - 34.0 °F 24% 30.23 in 10.0 mi Variable 4.6 mph - N/A   Scattered Clouds
2:53 PM 73.9 °F - 34.0 °F 23% 30.22 in 10.0 mi Variable 5.8 mph - N/A   Scattered Clouds
3:53 PM 75.0 °F - 37.9 °F 26% 30.23 in 10.0 mi NNW 16.1 mph 21.9 mph N/A   Scattered Clouds
4:53 PM 72.0 °F - 37.9 °F 29% 30.22 in 10.0 mi NW 19.6 mph 26.5 mph N/A   Partly Cloudy
5:53 PM 71.1 °F - 37.0 °F 29% 30.22 in 10.0 mi NW 17.3 mph 28.8 mph N/A   Partly Cloudy
6:53 PM 68.0 °F - 37.9 °F 33% 30.24 in 10.0 mi NNW 19.6 mph 32.2 mph N/A   Partly Cloudy
7:53 PM 64.0 °F - 37.9 °F 38% 30.24 in 10.0 mi NNW 13.8 mph 21.9 mph N/A   Clear
8:53 PM 60.8 °F - 37.4 °F 42% 30.24 in 10.0 mi NNW 18.4 mph 28.8 mph N/A   Clear
9:53 PM 60.1 °F - 37.0 °F 42% 30.25 in 10.0 mi NW 15.0 mph 24.2 mph N/A   Clear
10:53 PM 57.0 °F - 37.0 °F 47% 30.27 in 10.0 mi West 3.5 mph - N/A   Clear
11:53 PM 55.9 °F - 37.0 °F 49% 30.26 in 10.0 mi NW 4.6 mph - N/A   Clear